Portland, ME

10:34 PM EST on February 21, 2018 (GMT -0500)
Portland International

Weather History for KPWM - August, 2014

Change the Weather History Date:

Saturday, August 16, 2014

  Actual Average Record
Temperature  
Mean Temperature 65 °F 68 °F  
Max Temperature 74 °F 78 °F 95 °F (1936)
Min Temperature 55 °F 59 °F 43 °F (1964)
Degree Days  
Heating Degree Days 0 1  
Month to date heating degree days 5 7  
Since 1 June heating degree days 82 130  
Since 1 July heating degree days 5 24  
Cooling Degree Days 0 4  
Month to date cooling degree days 43 72  
Year to date cooling degree days 258 280  
Since 1 June cooling degree days 258 273  
Growing Degree Days 14 (Base 50)    
Moisture  
Dew Point 55 °F    
Average Humidity 68    
Maximum Humidity 86    
Minimum Humidity 49    
Precipitation  
Precipitation T in 0.10 in 2.00 in (1900)
Month to date precipitation 7.11 1.66  
Year to date precipitation 36.75 28.26  
Snow  
Snow 0.00 in 0.00 in 0.00 in (2002)
Month to date snowfall 0.0 0.0  
Since 1 June snowfall 0.0 0.0  
Since 1 July snowfall 0.0 0.0  
Snow Depth 0.00 in    
Sea Level Pressure  
Sea Level Pressure 29.91 in    
Wind  
Wind Speed 5 mph (SW)    
Max Wind Speed 15 mph    
Max Gust Speed 19 mph    
Visibility 10 miles    
Events      
T = Trace of Precipitation, MM = Missing Value Source: NWS Daily Summary

Daily Weather History Graph

Daily Weather History Graph

Search for Another Location

Airport or City:

Trip Planner

Search our weather history database for the weather conditions in past years. The results will help you decide how hot, cold, wet, or windy it might be!

Date:

Astronomy

Aug. 16, 2014 Rise Set
Actual Time 5:46 AM EDT 7:43 PM EDT
Civil Twilight 5:15 AM EDT 8:14 PM EDT
Nautical Twilight 4:37 AM EDT 8:51 PM EDT
Astronomical Twilight 3:56 AM EDT 9:33 PM EDT
Moon 11:10 PM EDT (8/16) 12:43 PM EDT (8/16)
Length of Visible Light 14h 58m
Length of Day
13h 56m
Waning Gibbous, 59% of the Moon is Illuminated
Aug 16
Waning Gibbous
Aug 17
Last Quarter
Aug 25
New
Sep 2
First Quarter
Sep 8
Full

Hourly Weather History & Observations

Time (EDT) Temp. Dew Point Humidity Pressure Visibility Wind Dir Wind Speed Gust Speed Precip Events Conditions
1:51 AM 60.1 °F 53.1 °F 78% 29.88 in 10.0 mi West 4.6 mph - N/A   Overcast
2:51 AM 60.1 °F 53.1 °F 78% 29.88 in 10.0 mi WSW 3.5 mph - N/A   Overcast
3:51 AM 59.0 °F 53.6 °F 82% 29.87 in 10.0 mi Calm Calm - N/A   Partly Cloudy
4:51 AM 57.0 °F 53.1 °F 87% 29.88 in 10.0 mi SW 3.5 mph - N/A   Mostly Cloudy
5:51 AM 55.9 °F 52.0 °F 87% 29.90 in 10.0 mi SW 3.5 mph - N/A   Mostly Cloudy
6:51 AM 57.0 °F 53.1 °F 87% 29.91 in 10.0 mi SW 3.5 mph - N/A   Scattered Clouds
7:51 AM 61.0 °F 54.0 °F 78% 29.92 in 10.0 mi WSW 5.8 mph - N/A   Clear
8:51 AM 64.4 °F 53.6 °F 68% 29.92 in 10.0 mi West 8.1 mph - N/A   Scattered Clouds
9:51 AM 68.0 °F 55.0 °F 63% 29.93 in 10.0 mi SW 6.9 mph - N/A   Scattered Clouds
10:51 AM 69.8 °F 55.4 °F 60% 29.93 in 10.0 mi West 10.4 mph - N/A   Scattered Clouds
11:51 AM 72.0 °F 53.1 °F 51% 29.92 in 10.0 mi SW 8.1 mph - N/A   Mostly Cloudy
12:51 PM 72.0 °F 53.1 °F 51% 29.92 in 10.0 mi West 8.1 mph - N/A   Overcast
1:51 PM 72.0 °F 52.0 °F 49% 29.92 in 10.0 mi SW 9.2 mph - N/A   Overcast
2:51 PM 72.0 °F 53.1 °F 51% 29.91 in 10.0 mi WSW 12.7 mph - N/A   Overcast
3:51 PM 73.4 °F 53.6 °F 50% 29.91 in 10.0 mi West 8.1 mph - N/A   Mostly Cloudy
4:51 PM 72.0 °F 54.0 °F 53% 29.91 in 10.0 mi Variable 4.6 mph - N/A   Overcast
5:51 PM 66.9 °F 59.0 °F 76% 29.91 in 10.0 mi South 4.6 mph - N/A   Overcast
6:51 PM 66.9 °F 57.9 °F 73% 29.91 in 10.0 mi South 3.5 mph - N/A   Overcast
7:51 PM 66.2 °F 57.2 °F 73% 29.90 in 10.0 mi South 3.5 mph - N/A   Overcast
8:51 PM 66.0 °F 57.9 °F 75% 29.91 in 10.0 mi SSW 3.5 mph - N/A   Overcast
9:51 PM 64.4 °F 57.2 °F 77% 29.90 in 10.0 mi SSW 3.5 mph - N/A   Mostly Cloudy
10:51 PM 64.0 °F 57.9 °F 80% 29.91 in 10.0 mi South 3.5 mph - N/A   Mostly Cloudy
11:51 PM 63.0 °F 57.9 °F 84% 29.89 in 10.0 mi Calm Calm - 0.00 in   Overcast